NOZ344 ENGM-ENBO

Flight info

Callsign NOZ344
Flight time N/A
Altitude 37000
Route RIBBE DCT GIGNI DCT SOMUB DCT ODNOS
Aircraft B738/M-SDE2E3GHILRWXY/LB1

Departure

Time N/A
Airport Oslo-Gardermoen International Airport (ENGM)

Arrival

Time 2026-05-03 21:10
Airport Bodø Airport (ENBO)
Time Latitude Longitude Altitude Speed Heading
2026-05-03 20:15 61.63106 11.48397 33072 ft 454 kts 352°
2026-05-03 20:15 61.66275 11.48408 33336 ft 455 kts 352°
2026-05-03 20:15 61.69437 11.48418 33613 ft 455 kts 352°
2026-05-03 20:15 61.72614 11.48430 33872 ft 455 kts 352°
2026-05-03 20:16 61.75780 11.48442 34082 ft 455 kts 352°
2026-05-03 20:16 61.78901 11.48454 34308 ft 454 kts 352°
2026-05-03 20:16 61.82101 11.48467 34555 ft 453 kts 352°
2026-05-03 20:16 61.85253 11.48479 34809 ft 453 kts 352°
2026-05-03 20:17 61.88359 11.48491 35041 ft 452 kts 352°
2026-05-03 20:17 61.91503 11.48501 35260 ft 452 kts 353°
2026-05-03 20:17 61.94642 11.48512 35471 ft 452 kts 353°
2026-05-03 20:17 61.97789 11.48523 35665 ft 451 kts 353°
2026-05-03 20:18 62.00934 11.48632 35865 ft 453 kts 356°
2026-05-03 20:18 62.04088 11.49159 36067 ft 455 kts 359°
2026-05-03 20:18 62.07244 11.49883 36253 ft 456 kts
2026-05-03 20:18 62.10397 11.50680 36435 ft 456 kts
2026-05-03 20:19 62.13552 11.51486 36621 ft 456 kts
2026-05-03 20:19 62.16668 11.52264 36750 ft 456 kts
2026-05-03 20:19 62.19834 11.53029 36747 ft 458 kts
2026-05-03 20:20 62.26172 11.54514 36749 ft 456 kts
2026-05-03 20:20 62.32455 11.55968 36744 ft 452 kts
2026-05-03 20:21 62.38695 11.57411 36744 ft 449 kts
2026-05-03 20:21 62.44912 11.58854 36732 ft 448 kts
2026-05-03 20:22 62.51076 11.60293 36741 ft 447 kts
2026-05-03 20:22 62.57276 11.61746 36734 ft 448 kts
2026-05-03 20:23 62.63496 11.63210 36746 ft 449 kts
2026-05-03 20:23 62.69724 11.64684 36755 ft 451 kts
2026-05-03 20:24 62.75986 11.66172 36767 ft 453 kts
2026-05-03 20:24 62.82272 11.67672 36777 ft 455 kts
2026-05-03 20:25 62.88532 11.69173 36785 ft 456 kts
2026-05-03 20:25 62.94841 11.70693 36791 ft 456 kts
2026-05-03 20:26 63.01154 11.72222 36794 ft 455 kts
2026-05-03 20:26 63.07449 11.73752 36790 ft 454 kts
2026-05-03 20:27 63.13730 11.75284 36795 ft 453 kts
2026-05-03 20:27 63.19946 11.76807 36790 ft 451 kts
2026-05-03 20:28 63.26183 11.78341 36790 ft 449 kts
2026-05-03 20:28 63.32384 11.79873 36795 ft 447 kts
2026-05-03 20:29 63.38531 11.82273 36808 ft 451 kts
2026-05-03 20:29 63.44574 11.85974 36797 ft 453 kts 10°
2026-05-03 20:30 63.50651 11.89833 36805 ft 453 kts 10°
2026-05-03 20:30 63.55717 11.92977 36806 ft 454 kts
2026-05-03 20:31 63.62817 11.97312 36792 ft 455 kts
2026-05-03 20:31 63.67952 12.00439 36813 ft 456 kts
2026-05-03 20:32 63.74064 12.04174 36805 ft 459 kts
2026-05-03 20:32 63.80250 12.07975 36804 ft 460 kts
2026-05-03 20:33 63.86459 12.11808 36807 ft 465 kts
2026-05-03 20:33 63.92705 12.15680 36802 ft 471 kts 10°
2026-05-03 20:34 63.99065 12.19643 36807 ft 476 kts 10°
2026-05-03 20:34 64.05510 12.23680 36804 ft 482 kts 10°
2026-05-03 20:35 64.12017 12.27777 36802 ft 487 kts 10°
2026-05-03 20:35 64.18601 12.31943 36794 ft 491 kts 10°
2026-05-03 20:36 64.25168 12.36120 36794 ft 494 kts 11°
2026-05-03 20:36 64.31806 12.40363 36786 ft 495 kts 11°
2026-05-03 20:37 64.38458 12.44636 36785 ft 495 kts 11°
2026-05-03 20:37 64.45055 12.48894 36770 ft 495 kts 11°
2026-05-03 20:38 64.51682 12.53193 36790 ft 493 kts 11°
2026-05-03 20:38 64.58296 12.57504 36779 ft 492 kts 11°
2026-05-03 20:39 64.64859 12.61802 36774 ft 492 kts 11°
2026-05-03 20:39 64.71454 12.66142 36770 ft 491 kts 11°
2026-05-03 20:40 64.78028 12.70493 36772 ft 490 kts 11°
2026-05-03 20:40 64.84586 12.74855 36769 ft 489 kts 11°
2026-05-03 20:41 64.91084 12.79198 36772 ft 488 kts 11°
2026-05-03 20:41 64.97538 12.83548 36744 ft 468 kts 11°
2026-05-03 20:41 65.00626 12.85642 36740 ft 457 kts 11°
2026-05-03 20:42 65.03683 12.87710 36766 ft 455 kts 11°
2026-05-03 20:42 65.09755 12.91814 36760 ft 456 kts 11°
2026-05-03 20:43 65.15856 12.95961 36768 ft 455 kts 11°
2026-05-03 20:43 65.21914 13.00107 36756 ft 455 kts 11°
2026-05-03 20:44 65.28034 13.04313 36307 ft 463 kts 11°
2026-05-03 20:44 65.31134 13.06451 35834 ft 462 kts 11°
2026-05-03 20:44 65.34243 13.08605 35243 ft 464 kts 10°
2026-05-03 20:44 65.37342 13.10762 34819 ft 462 kts 10°
2026-05-03 20:45 65.40392 13.12887 34333 ft 462 kts 10°
2026-05-03 20:45 65.43477 13.15040 33898 ft 461 kts
2026-05-03 20:45 65.46560 13.17195 33350 ft 460 kts
2026-05-03 20:45 65.49623 13.19346 32874 ft 457 kts
2026-05-03 20:46 65.52668 13.21489 32425 ft 454 kts
2026-05-03 20:46 65.55697 13.23624 31982 ft 451 kts
2026-05-03 20:46 65.58707 13.25749 31518 ft 449 kts
2026-05-03 20:46 65.61698 13.27865 31095 ft 446 kts
2026-05-03 20:47 65.64634 13.29948 30681 ft 444 kts
2026-05-03 20:47 65.67601 13.32054 30217 ft 444 kts
2026-05-03 20:47 65.70570 13.34167 29788 ft 444 kts
2026-05-03 20:47 65.73538 13.36284 29261 ft 443 kts
2026-05-03 20:48 65.76491 13.38400 28774 ft 440 kts
2026-05-03 20:48 65.79430 13.40512 28309 ft 438 kts
2026-05-03 20:48 65.82337 13.42607 27859 ft 435 kts
2026-05-03 20:48 65.85191 13.44666 27406 ft 432 kts
2026-05-03 20:49 65.88062 13.46744 26972 ft 428 kts
2026-05-03 20:49 65.90923 13.48817 26552 ft 426 kts
2026-05-03 20:49 65.93761 13.50877 26098 ft 424 kts
2026-05-03 20:49 65.96578 13.52927 25668 ft 421 kts
2026-05-03 20:50 65.99359 13.54953 25237 ft 420 kts
2026-05-03 20:50 66.02153 13.57000 24817 ft 418 kts
2026-05-03 20:50 66.04948 13.59048 24336 ft 418 kts
2026-05-03 20:50 66.07725 13.61085 23919 ft 417 kts
2026-05-03 20:51 66.10508 13.63132 23460 ft 416 kts
2026-05-03 20:51 66.13275 13.65172 22975 ft 414 kts
2026-05-03 20:51 66.16030 13.67208 22498 ft 412 kts
2026-05-03 20:51 66.18765 13.69239 22057 ft 409 kts
2026-05-03 20:52 66.21474 13.71252 21623 ft 405 kts
2026-05-03 20:52 66.24168 13.73257 21191 ft 402 kts 10°
2026-05-03 20:52 66.26839 13.75251 20763 ft 399 kts 10°
2026-05-03 20:52 66.29450 13.77342 20333 ft 400 kts 17°
2026-05-03 20:53 66.31956 13.80477 19798 ft 405 kts 25°
2026-05-03 20:53 66.34373 13.84006 19355 ft 397 kts 26°
2026-05-03 20:53 66.36703 13.87527 18939 ft 387 kts 27°
2026-05-03 20:53 66.38974 13.90949 18529 ft 376 kts 26°
2026-05-03 20:54 66.41196 13.94251 18155 ft 365 kts 26°
2026-05-03 20:54 66.45480 14.00521 17349 ft 348 kts 26°
2026-05-03 20:54 66.47554 14.03537 16986 ft 338 kts 25°
2026-05-03 20:55 66.49541 14.06424 16627 ft 331 kts 25°
2026-05-03 20:55 66.51506 14.09280 16307 ft 322 kts 25°
2026-05-03 20:55 66.53427 14.12076 15970 ft 317 kts 25°
2026-05-03 20:55 66.55330 14.14848 15625 ft 314 kts 25°
2026-05-03 20:56 66.57219 14.17605 15299 ft 314 kts 25°
2026-05-03 20:56 66.59109 14.20362 15000 ft 325 kts 25°
2026-05-03 20:56 66.61099 14.23271 14634 ft 333 kts 26°
2026-05-03 20:56 66.63102 14.26219 14265 ft 332 kts 26°
2026-05-03 20:57 66.65090 14.29149 13923 ft 331 kts 26°
2026-05-03 20:57 66.67077 14.32085 13561 ft 330 kts 26°
2026-05-03 20:57 66.69039 14.34987 13417 ft 324 kts 26°
2026-05-03 20:57 66.70977 14.37819 13092 ft 319 kts 23°
2026-05-03 20:58 66.72942 14.40257 12871 ft 312 kts 20°
2026-05-03 20:58 66.74929 14.42535 12495 ft 314 kts 19°
2026-05-03 20:58 66.76916 14.44791 12154 ft 310 kts 19°
2026-05-03 20:58 66.78836 14.47003 11806 ft 304 kts 20°
2026-05-03 20:59 66.80739 14.49224 11470 ft 297 kts 20°
2026-05-03 20:59 66.82602 14.51423 11195 ft 292 kts 20°
2026-05-03 20:59 66.84451 14.53611 10860 ft 293 kts 20°
2026-05-03 20:59 66.86315 14.55821 10543 ft 300 kts 20°
2026-05-03 21:00 66.88246 14.58140 10210 ft 311 kts 21°
2026-05-03 21:00 66.89535 14.59706 10099 ft 306 kts 21°
2026-05-03 21:00 66.92059 14.62788 9768 ft 298 kts 21°
2026-05-03 21:00 66.93909 14.65040 9445 ft 298 kts 21°
2026-05-03 21:01 66.95782 14.67323 9098 ft 297 kts 21°
2026-05-03 21:01 66.97647 14.69597 8808 ft 297 kts 21°
2026-05-03 21:01 66.99514 14.71879 8452 ft 295 kts 21°
2026-05-03 21:01 67.01362 14.74142 8179 ft 294 kts 21°
2026-05-03 21:02 67.03214 14.76409 7867 ft 295 kts 22°
2026-05-03 21:02 67.05047 14.78660 7557 ft 296 kts 22°
2026-05-03 21:02 67.06902 14.80942 7210 ft 293 kts 22°
2026-05-03 21:02 67.08704 14.83168 7032 ft 284 kts 22°
2026-05-03 21:03 67.10503 14.85386 6655 ft 289 kts 22°
2026-05-03 21:03 67.12338 14.87646 6337 ft 295 kts 22°
2026-05-03 21:03 67.14199 14.89951 5948 ft 296 kts 22°
2026-05-03 21:03 67.16025 14.92211 5619 ft 292 kts 23°
2026-05-03 21:04 67.17887 14.94340 5253 ft 293 kts 12°
2026-05-03 21:04 67.19857 14.94731 5028 ft 278 kts 351°
2026-05-03 21:04 67.21770 14.94477 4684 ft 271 kts 352°
2026-05-03 21:04 67.23618 14.94253 4478 ft 262 kts 352°
2026-05-03 21:05 67.25392 14.93698 4153 ft 250 kts 332°
2026-05-03 21:05 67.26649 14.91148 3935 ft 217 kts 291°
2026-05-03 21:05 67.27159 14.87697 3741 ft 198 kts 277°
2026-05-03 21:05 67.27521 14.84300 3528 ft 192 kts 272°
2026-05-03 21:06 67.27675 14.80962 3328 ft 187 kts 266°
2026-05-03 21:06 67.27724 14.77582 3168 ft 189 kts 262°
2026-05-03 21:06 67.27695 14.74232 3040 ft 181 kts 261°
2026-05-03 21:06 67.27654 14.71075 2905 ft 172 kts 260°
2026-05-03 21:07 67.27614 14.68090 2665 ft 164 kts 260°
2026-05-03 21:07 67.27576 14.65197 2419 ft 156 kts 261°
2026-05-03 21:07 67.27541 14.62437 2203 ft 152 kts 261°
2026-05-03 21:07 67.27508 14.59752 1922 ft 147 kts 261°
2026-05-03 21:08 67.27475 14.57108 1668 ft 144 kts 261°
2026-05-03 21:08 67.27447 14.54650 1433 ft 130 kts 261°
2026-05-03 21:08 67.27471 14.52326 1130 ft 133 kts 271°
2026-05-03 21:08 67.27678 14.49965 952 ft 132 kts 278°
2026-05-03 21:09 67.27808 14.47653 703 ft 130 kts 264°
2026-05-03 21:09 67.27694 14.45333 545 ft 131 kts 252°
2026-05-03 21:09 67.27493 14.43085 405 ft 129 kts 251°
2026-05-03 21:09 67.27294 14.40870 164 ft 122 kts 253°
2026-05-03 21:10 67.27106 14.38708 61 ft 126 kts 247°
2026-05-03 21:10 67.26926 14.36636 38 ft 100 kts 258°
2026-05-03 21:10 67.26816 14.35271 37 ft 55 kts 258°
2026-05-03 21:10 67.26751 14.34490 31 ft 43 kts 258°
2026-05-03 21:11 67.26691 14.33769 32 ft 39 kts 259°
2026-05-03 21:11 67.26709 14.33416 32 ft 15 kts 335°
2026-05-03 21:11 67.26802 14.33436 30 ft 15 kts 63°
2026-05-03 21:11 67.26823 14.33687 32 ft 14 kts 78°
2026-05-03 21:12 67.26852 14.34050 33 ft 30 kts 78°
2026-05-03 21:12 67.26907 14.34697 35 ft 39 kts 78°
2026-05-03 21:12 67.26962 14.35363 36 ft 36 kts 77°
2026-05-03 21:12 67.27013 14.35973 38 ft 33 kts 78°
2026-05-03 21:13 67.27049 14.36514 40 ft 19 kts 78°
2026-05-03 21:13 67.27075 14.36769 39 ft 11 kts 48°
2026-05-03 21:13 67.27138 14.36787 41 ft 0 kts 358°